"Pseudo-MPEC" for C0VKAF5

Created 2024 Dec 9 17:31:02 UT using Find_Orb

Click here for an explanation of pseudo-MPECs

 
 Astrometry: 
     C0VKAF5* C2024 11 29.26647403 49 21.976+21 00 17.06   ~BT7V 22.86GVNEOCPV00
     C0VKAF5  C2024 11 29.27506603 49 17.216+21 00 15.44   ~BT7V 22.73GVNEOCPV00
     C0VKAF5  C2024 11 29.28066803 49 14.236+21 00 14.22   ~BT7V 21.84GVNEOCPV00
     C0VKAF5  C2024 11 29.28627403 49 11.125+21 00 13.50   ~BT7V 22.27GVNEOCPV00
     C0VKAF5 KC2024 11 29.32581303 48 49.440+21 00 03.10   ~BT92 22.28GVNEOCPV06
     C0VKAF5 KC2024 11 29.34199503 48 40.660+20 59 58.70   ~BT92 22.10GVNEOCPV06

Station data:
(V00) Kitt Peak-Bok  (N31.963125 W111.600190)  US/Arizona.  Observers T. A.
   Pruyne, B. M. Africano, E. J. Christensen, G. A. Farneth, D. C. Fuls, A.
   R. Gibbs, A. D. Grauer, H. Gröller, J. A. Johnson, R. A. Kowalski, S. M.
   Larson, G. J. Leonard, D. Rankin, R. L. Seaman, F. C. Shelly, K. W.
   Wierzchoś. 2.25-m reflector + 4x4K mosaic CCD.
(V06) Catalina Sky Survey-Kuiper  (N32.416871 W110.732550)  US/Arizona.
   Observers T. A. Pruyne, B. M. Africano, E. J. Christensen, G. A. Farneth,
   D. C. Fuls, A. R. Gibbs, A. D. Grauer, H. Gröller, J. A. Johnson, R. A.
   Kowalski, S. M. Larson, G. J. Leonard, D. Rankin, R. L. Seaman, F. C.
   Shelly, K. W. Wierzchoś. 1.55-m reflector + CCD.

Orbital elements:  C0VKAF5
   Perihelion 2025 Mar 5.72922 +/- 94.6 TT = 17:30:04 (JD 2460740.22922)
Epoch 2024 Nov 29.0 TT = JDT 2460643.5   Earth MOID: 0.0196   Ve: 0.0025
M 247.79313742 +/- 100              (J2000 ecliptic)             AutoNEOCP
n   1.16001005 +/- 0.183            Peri.  146.09318 +/- 39
a   0.89707388 +/- 0.0944           Node    64.55228 +/- 0.34
e   0.3778494 +/- 0.162             Incl.    3.23097 +/- 2.2
P   0.850/310.336d         H 26.43  G  0.15   U 11.6  SR
q 0.55811498 +/- 0.159    Q 1.23603278 +/- 0.212
From 6 observations 2024 Nov. 29 (1.8 hr); mean residual 0".33
Residuals in arcseconds: 
241129 V00  .35+  .17-    241129 V00  .50+  .09-    241129 V06  .42-  .01+    
241129 V00  .62-  .05-    241129 V00  .17-  .39+    241129 V06  .35+  .09-    

Ephemerides (geocentric):
Date (UTC) HH   RA             Dec           delta  r     elong  mag " sig PA
---- --------  ------------   ------------  ------ ------ -----  --- --------
2024 12 09 18  01 58 53.664   +18 06 45.10  .10141 1.0600 135.9 23.2  20d 106
2024 12 09 19  01 58 24.570   +18 05 26.00  .10137 1.0597 135.7 23.2  20d 106
2024 12 09 20  01 57 55.475   +18 04 06.61  .10134 1.0595 135.5 23.2  20d 106
2024 12 09 21  01 57 26.379   +18 02 46.94  .10131 1.0593 135.4 23.2  20d 106
2024 12 09 22  01 56 57.283   +18 01 26.98  .10128 1.0591 135.2 23.2  21d 106
2024 12 09 23  01 56 28.187   +18 00 06.75  .10125 1.0589 135.1 23.2  21d 106
2024 12 10 00  01 55 59.092   +17 58 46.23  .10122 1.0587 134.9 23.2  21d 106
2024 12 10 01  01 55 29.996   +17 57 25.43  .10119 1.0585 134.7 23.2  21d 106
2024 12 10 02  01 55 00.902   +17 56 04.36  .10116 1.0583 134.6 23.2  21d 106
2024 12 10 03  01 54 31.808   +17 54 43.01  .10113 1.0580 134.4 23.2  21d 106
2024 12 10 04  01 54 02.716   +17 53 21.38  .10110 1.0578 134.3 23.2  21d 107
2024 12 10 05  01 53 33.625   +17 51 59.48  .10107 1.0576 134.1 23.2  22d 107
2024 12 10 06  01 53 04.536   +17 50 37.30  .10105 1.0574 134.0 23.2  22d 107
2024 12 10 07  01 52 35.450   +17 49 14.85  .10102 1.0572 133.8 23.2  22d 107
2024 12 10 08  01 52 06.365   +17 47 52.13  .10099 1.0570 133.6 23.2  22d 107
2024 12 10 09  01 51 37.283   +17 46 29.13  .10097 1.0568 133.5 23.2  22d 107
2024 12 10 10  01 51 08.204   +17 45 05.86  .10094 1.0565 133.3 23.2  22d 107
2024 12 10 11  01 50 39.129   +17 43 42.33  .10092 1.0563 133.2 23.2  22d 107
2024 12 10 12  01 50 10.056   +17 42 18.53  .10089 1.0561 133.0 23.2  22d 107
2024 12 10 13  01 49 40.988   +17 40 54.45  .10087 1.0559 132.8 23.2  23d 107
2024 12 10 14  01 49 11.923   +17 39 30.12  .10084 1.0557 132.7 23.2  23d 107
2024 12 10 15  01 48 42.862   +17 38 05.51  .10082 1.0555 132.5 23.2  23d 107
2024 12 10 16  01 48 13.806   +17 36 40.65  .10080 1.0553 132.4 23.2  23d 107
2024 12 10 17  01 47 44.755   +17 35 15.52  .10077 1.0550 132.2 23.3  23d 107
2024 12 10 18  01 47 15.708   +17 33 50.13  .10075 1.0548 132.0 23.3  23d 107
2024 12 10 19  01 46 46.667   +17 32 24.47  .10073 1.0546 131.9 23.3  23d 107
2024 12 10 20  01 46 17.632   +17 30 58.56  .10071 1.0544 131.7 23.3  23d 107
2024 12 10 21  01 45 48.602   +17 29 32.39  .10069 1.0542 131.6 23.3  23d 107
2024 12 10 22  01 45 19.578   +17 28 05.96  .10067 1.0540 131.4 23.3  24d 107
2024 12 10 23  01 44 50.561   +17 26 39.28  .10065 1.0538 131.2 23.3  24d 107
2024 12 11 00  01 44 21.550   +17 25 12.34  .10063 1.0535 131.1 23.3  24d 107
2024 12 11 01  01 43 52.545   +17 23 45.14  .10061 1.0533 130.9 23.3  24d 107
2024 12 11 02  01 43 23.548   +17 22 17.70  .10059 1.0531 130.8 23.3  24d 107
2024 12 11 03  01 42 54.558   +17 20 50.00  .10057 1.0529 130.6 23.3  24d 107
2024 12 11 04  01 42 25.576   +17 19 22.05  .10056 1.0527 130.4 23.3  24d 107
2024 12 11 05  01 41 56.602   +17 17 53.85  .10054 1.0525 130.3 23.3  24d 107
2024 12 11 06  01 41 27.635   +17 16 25.40  .10052 1.0522 130.1 23.3  24d 107
2024 12 11 07  01 40 58.677   +17 14 56.71  .10051 1.0520 130.0 23.3  25d 107
2024 12 11 08  01 40 29.728   +17 13 27.77  .10049 1.0518 129.8 23.3  25d 107
2024 12 11 09  01 40 00.787   +17 11 58.59  .10047 1.0516 129.6 23.3  25d 107
2024 12 11 10  01 39 31.855   +17 10 29.16  .10046 1.0514 129.5 23.3  25d 107
2024 12 11 11  01 39 02.933   +17 08 59.50  .10044 1.0512 129.3 23.3  25d 107
2024 12 11 12  01 38 34.020   +17 07 29.59  .10043 1.0509 129.2 23.3  25d 107
2024 12 11 13  01 38 05.118   +17 05 59.44  .10042 1.0507 129.0 23.3  25d 107
2024 12 11 14  01 37 36.225   +17 04 29.05  .10040 1.0505 128.8 23.3  25d 107
2024 12 11 15  01 37 07.342   +17 02 58.43  .10039 1.0503 128.7 23.3  25d 107
2024 12 11 16  01 36 38.470   +17 01 27.57  .10038 1.0501 128.5 23.3  25d 107
2024 12 11 17  01 36 09.609   +16 59 56.48  .10037 1.0498 128.4 23.3  25d 107